Theta_e
341 339 340 341 339 340 344 343 342 343 342 341 343 342 342 342 340 341 341 341 340 340 339 338 337 336 335 335 339 339 339 339 338 337 335 337 339 337 330 333 336 337 338
340 339 339 340 340 339 341 340 339 340 341 341 343 342 341 342 342 343 343 340 340 343 342 341 340 337 336 335 338 339 337 334 334 333 330 330 335 335 333 334 334 336 336
339 339 339 341 340 339 339 339 338 340 340 340 340 341 341 341 343 342 341 341 339 339 339 339 339 338 336 335 336 334 332 330 330 335 336 338 337 338 335 336 337 337 337
338 339 340 340 340 340 338 337 339 339 339 339 338 341 343 343 342 342 341 341 340 339 338 337 337 335 336 335 333 335 333 332 334 335 333 333 336 338 337 337 338 337 337
337 338 339 339 340 340 339 340 340 339 338 339 341 341 342 341 340 340 338 336 336 335 335 335 335 332 330 332 332 333 331 329 332 332 329 332 335 337 337 337 337 336 334
335 338 339 339 340 340 339 339 340 338 342 341 340 340 339 338 339 338 336 334 332 331 330 330 330 328 328 331 332 331 330 328 330 331 334 332 334 336 336 335 334 333 332
334 337 338 338 339 339 340 338 342 340 340 339 338 339 338 338 337 335 333 331 330 330 330 330 329 327 331 333 334 329 328 326 330 336 335 335 335 334 333 331 330 330 329
334 338 340 339 337 339 341 339 340 340 340 339 337 337 336 336 335 333 331 330 330 330 330 330 329 329 332 332 328 328 325 329 337 336 335 333 331 331 329 328 327 327 327
331 338 340 339 338 339 342 338 338 340 340 337 336 336 334 333 333 331 330 329 329 330 331 330 329 331 331 331 328 327 324 335 334 333 332 329 328 328 326 325 325 325 324
334 340 340 339 339 340 341 341 337 339 339 338 337 334 333 331 330 329 328 328 329 330 329 328 328 329 329 324 322 322 331 333 331 330 329 327 326 324 323 323 323 323 323
329 334 334 336 339 339 341 341 337 336 340 338 335 332 331 329 328 327 327 327 329 330 328 327 327 329 330 330 330 330 330 330 329 327 325 325 324 323 323 322 323 324 325
324 328 329 332 335 338 340 340 335 340 337 336 333 331 328 326 326 325 326 327 326 329 327 327 327 327 327 327 328 328 329 328 327 325 323 324 323 322 322 323 323 324 326
323 326 323 327 323 326 338 338 338 338 336 333 332 330 325 325 325 325 325 325 327 329 328 327 325 326 325 325 324 324 326 326 325 323 322 322 322 322 321 321 324 325 324
324 322 321 322 324 322 330 337 337 335 334 332 331 328 323 324 323 323 324 324 329 328 326 327 326 325 325 324 323 323 323 324 322 321 321 321 321 321 320 320 322 323 325
324 322 317 318 319 320 320 336 336 335 333 331 329 326 323 322 321 321 323 323 328 326 326 324 323 323 323 321 322 323 323 321 319 320 320 320 320 320 320 320 320 320 320
322 321 320 317 318 318 318 319 331 333 332 330 327 324 321 320 319 321 323 322 327 325 322 321 321 320 320 321 322 322 320 318 319 320 320 319 319 320 320 320 319 319 318
322 321 320 317 317 317 316 318 320 330 330 326 324 321 320 318 318 320 321 321 323 320 319 319 319 319 320 321 321 319 317 315 317 318 319 319 318 318 318 319 318 318 318
321 319 319 318 317 316 316 319 319 326 328 323 321 319 317 316 317 319 319 319 319 318 317 316 315 317 319 319 317 314 312 313 314 315 315 315 315 315 315 315 316 316 316
320 318 318 318 315 315 314 318 318 318 320 318 316 315 313 314 315 316 317 318 317 317 316 315 313 311 311 310 309 308 309 310 310 310 311 311 311 311 310 310 310 312 312
320 319 318 317 316 316 316 315 316 310 308 310 310 310 311 312 313 314 316 317 317 317 316 314 313 311 310 309 309 310 310 309 309 309 309 309 309 310 309 305 304 305 306
321 319 317 315 316 315 314 313 309 308 307 308 308 309 309 310 312 314 315 316 317 316 316 315 313 312 311 310 311 311 311 311 311 311 310 310 310 310 309 308 308 307 305
317 316 316 315 315 315 315 315 313 312 306 308 309 308 309 309 310 312 313 316 316 317 316 315 314 313 312 312 313 313 314 312 312 312 311 311 311 310 310 310 309 309 308
316 316 315 315 315 315 315 315 313 309 308 308 308 309 308 308 309 311 312 315 316 316 316 315 314 313 313 313 314 312 315 315 313 312 312 312 311 311 311 310 310 309 309
317 316 315 315 314 313 313 312 310 309 308 308 307 308 308 308 308 309 311 313 315 315 315 314 314 313 313 313 311 310 309 312 314 312 312 312 312 312 312 311 310 310 309
319 317 315 314 313 313 312 312 310 310 309 308 307 308 308 308 307 307 308 310 312 313 314 314 314 313 312 312 310 309 308 309 309 312 312 310 312 312 312 312 310 310 309
321 319 315 314 314 313 312 312 311 313 312 311 309 309 308 308 308 307 308 308 309 310 311 312 311 311 310 310 309 309 308 308 308 309 311 310 310 310 310 310 308 308 307
Wind_Speed
3 10 22 21 20 21 21 22 21 21 22 21 19 19 17 16 17 17 17 17 18 18 16 15 15 14 13 13 12 14 16 16 16 16 16 16 14 13 15 14 11 12 12
11 9 24 21 22 21 22 21 22 22 22 20 19 19 18 17 17 17 17 18 17 17 17 16 16 15 13 12 12 13 14 15 16 15 14 14 13 11 12 13 12 11 11
13 6 22 22 23 22 25 23 21 22 22 21 21 19 19 18 17 17 18 18 18 15 15 15 14 15 14 13 12 13 14 15 15 14 13 13 11 11 10 9 10 12 15
12 5 18 23 24 24 25 24 23 23 23 23 22 22 21 20 18 18 16 16 15 14 14 14 13 13 12 13 12 12 13 15 14 12 11 13 12 13 17 19 19 19 19
10 7 17 24 26 26 26 26 25 24 26 24 25 22 21 20 19 17 16 14 14 14 13 14 13 13 14 13 13 13 14 14 11 6 9 11 14 13 16 18 17 18 17
11 8 15 26 27 27 28 27 27 28 27 26 23 21 19 19 18 17 16 15 14 13 13 13 13 13 14 13 13 14 13 13 9 9 13 13 14 15 16 17 16 16 14
12 10 13 26 29 30 31 30 27 28 27 25 22 20 19 18 17 17 16 15 14 15 14 14 14 15 15 15 16 14 14 10 8 12 15 19 19 17 15 14 12 13 11
15 10 12 25 30 33 32 32 29 27 27 25 22 20 19 17 17 16 15 15 16 16 15 14 15 16 16 16 17 15 13 10 13 16 19 19 17 15 13 11 10 10 10
14 12 15 22 28 34 30 34 32 27 26 26 23 22 19 18 17 15 15 15 16 16 16 16 17 17 16 17 18 17 14 16 17 17 16 16 15 13 12 11 11 11 12
12 11 15 17 26 31 28 33 33 29 26 27 25 22 21 19 17 16 17 16 17 18 20 19 18 17 16 17 18 19 19 18 18 17 17 14 14 13 13 13 13 13 13
9 5 9 17 25 30 29 30 32 30 29 28 25 24 23 17 16 16 16 19 19 22 21 20 20 20 19 21 21 22 16 14 14 17 16 15 15 14 14 14 14 13 13
7 2 7 8 12 25 28 28 31 32 32 30 26 25 18 17 17 16 17 21 18 21 21 22 21 20 18 17 18 17 14 13 11 15 14 14 14 13 13 13 13 13 12
10 7 4 6 11 20 28 28 29 32 32 28 27 24 19 19 18 16 20 19 20 23 24 22 20 17 15 14 14 10 13 12 14 16 13 15 14 13 13 13 13 13 12
12 9 10 12 10 17 10 27 28 29 31 29 25 23 20 20 19 20 22 21 21 25 23 18 20 14 14 13 12 14 14 13 12 14 14 14 13 13 13 13 12 13 16
12 9 7 8 12 17 25 25 30 25 28 29 24 24 22 20 22 22 21 22 23 21 21 21 17 16 15 14 15 15 14 13 13 15 14 13 13 12 12 12 11 11 10
14 11 7 10 10 11 24 22 13 27 29 27 25 24 22 21 21 21 22 21 24 21 20 19 19 18 17 16 16 15 14 14 14 15 16 15 15 13 12 12 11 11 10
14 12 8 8 13 9 11 21 20 17 30 27 28 25 22 20 21 20 21 21 20 21 20 19 19 18 18 17 16 14 13 14 14 15 15 13 13 14 12 11 10 10 9
13 14 11 9 10 13 8 15 13 17 23 28 27 25 21 20 21 21 20 21 21 22 21 20 19 20 18 18 16 14 13 13 14 13 13 13 12 11 13 12 11 10 9
18 15 13 15 16 16 5 9 6 14 15 16 28 26 23 21 22 21 21 22 22 21 20 19 19 19 19 18 16 13 12 12 12 11 12 11 12 11 9 11 10 10 9
21 16 13 17 17 20 15 16 18 19 12 10 18 22 23 22 22 20 20 22 23 21 21 19 19 19 19 20 18 14 11 11 10 10 10 9 9 9 8 7 8 7 7
16 17 18 20 26 26 33 35 25 23 14 10 10 18 21 21 22 21 20 22 21 21 21 21 20 20 18 19 18 14 9 8 8 9 10 9 8 8 8 9 8 5 6
15 17 17 20 27 24 23 22 24 29 19 9 6 13 18 19 21 20 20 21 20 20 21 21 21 20 18 21 11 12 4 4 9 10 10 10 10 9 8 8 8 8 6
10 13 15 21 21 24 20 19 14 21 28 20 14 13 17 18 20 19 20 21 20 19 20 22 23 21 18 20 19 3 3 3 13 11 11 11 11 11 10 10 10 8 7
14 13 10 12 16 16 20 22 26 22 23 19 25 18 16 17 21 20 20 20 20 20 21 21 21 19 17 18 12 8 2 4 3 4 11 14 13 13 13 12 10 9 9
18 19 17 14 15 19 21 19 23 19 16 23 24 22 21 18 19 22 21 23 23 20 20 21 20 17 16 16 12 10 4 4 4 3 3 8 12 13 13 12 12 9 9
8 15 21 20 17 21 20 18 20 15 13 13 13 20 17 17 18 18 19 21 22 20 20 19 18 18 17 14 16 12 8 4 7 2 3 10 11 13 12 10 10 8 9
Wind_Direction
254 182 178 181 180 177 169 168 165 165 164 159 160 160 160 153 148 148 148 144 141 136 135 130 125 122 118 117 107 112 115 110 106 105 101 96 89 87 102 96 88 92 93
348 193 181 185 186 184 177 175 177 174 169 169 164 163 161 157 155 159 162 158 147 140 133 131 130 126 126 122 115 111 115 116 113 108 102 92 83 83 106 101 103 99 92
349 210 186 191 190 190 184 177 186 179 176 173 169 165 162 159 165 153 150 142 139 138 139 135 127 129 130 134 125 117 117 117 112 107 100 89 86 80 94 114 110 101 97
332 250 192 198 196 191 188 187 189 183 179 175 170 168 161 158 153 150 148 146 144 147 147 147 144 154 141 140 133 128 125 121 118 123 106 113 90 87 92 91 90 86 80
323 267 206 201 200 196 191 190 193 189 179 175 175 168 160 158 166 152 150 149 148 150 151 151 155 158 151 144 140 141 134 125 106 83 96 102 105 92 87 86 84 83 79
317 279 220 200 204 202 194 194 196 192 183 178 172 165 164 174 159 155 151 154 156 154 150 150 151 155 152 146 141 144 139 127 104 112 110 110 117 102 87 83 78 76 73
312 281 229 202 204 207 199 195 196 191 184 179 172 172 181 166 160 156 155 156 153 147 145 145 145 146 147 146 143 148 140 124 117 105 113 109 100 93 89 83 80 70 72
309 269 233 204 206 210 203 196 198 191 185 181 181 181 176 168 162 159 157 154 151 147 148 147 144 143 146 151 148 149 140 111 112 109 105 97 95 87 85 88 89 84 80
315 263 236 212 209 211 212 201 199 192 187 185 184 180 174 169 164 161 158 156 152 150 148 148 143 144 146 148 149 148 142 121 108 107 100 98 93 84 84 87 92 87 87
320 261 244 221 210 209 210 204 199 195 187 185 180 175 171 173 169 164 160 158 154 150 143 146 148 141 140 143 145 143 142 113 110 104 98 97 91 86 88 90 92 89 90
306 286 255 244 222 209 205 202 199 192 186 181 172 179 174 166 168 169 165 158 159 153 150 150 147 144 141 136 135 131 121 108 107 99 100 101 93 95 91 93 95 91 93
280 274 288 262 267 225 205 197 191 186 178 174 169 173 173 174 171 170 166 154 162 153 157 155 153 146 130 134 139 131 144 128 121 113 109 107 103 99 96 96 94 89 85
254 232 273 202 331 341 203 198 184 177 173 168 172 174 179 173 167 160 159 159 161 163 160 158 155 146 150 149 151 151 147 140 121 108 120 113 112 107 100 104 94 91 89
237 244 242 260 275 306 270 191 179 178 172 173 179 174 179 173 173 168 164 165 163 161 161 155 160 162 156 158 158 150 145 140 127 119 125 127 118 114 108 105 103 96 86
221 243 241 253 261 316 324 193 182 180 175 173 178 175 180 176 178 171 169 169 167 162 167 165 165 160 161 158 153 146 144 138 132 129 129 130 126 117 111 105 103 101 100
222 229 197 227 184 264 337 342 181 182 178 180 171 175 181 179 179 177 169 173 164 173 168 167 163 159 153 153 149 148 144 141 138 136 135 142 137 126 118 110 106 99 95
210 217 198 233 240 210 338 311 301 225 189 166 166 174 180 181 179 176 172 169 171 166 167 163 160 154 153 152 151 151 149 146 142 140 142 142 148 135 121 114 114 111 104
193 204 192 186 181 194 273 330 303 240 195 162 161 166 176 178 176 175 172 169 170 165 163 158 156 154 153 152 151 150 147 146 146 145 145 146 146 148 146 134 128 125 121
181 196 185 179 148 168 148 261 200 119 151 176 155 157 170 174 175 177 173 169 167 163 160 159 158 154 152 147 145 147 148 149 149 152 155 156 160 155 175 163 154 146 131
177 194 188 186 182 145 121 176 154 117 121 194 145 154 164 171 173 175 174 169 166 165 162 162 158 156 152 147 144 141 145 150 156 161 162 164 164 166 164 166 152 167 156
169 187 188 184 181 160 158 156 143 138 144 99 150 155 165 171 173 174 174 172 170 168 164 164 159 153 150 148 132 129 137 156 169 174 175 176 177 173 177 173 165 176 175
190 192 190 190 182 172 171 164 162 163 147 141 177 166 172 172 176 174 175 171 171 171 168 164 161 155 154 157 148 141 155 177 202 194 191 191 189 189 193 190 185 173 185
201 192 200 182 184 188 185 184 165 141 159 171 189 182 181 176 180 178 175 173 173 175 172 170 167 164 164 182 168 153 156 181 156 190 200 201 198 196 202 202 201 190 191
199 205 193 177 185 184 186 164 160 170 164 175 183 187 184 183 185 179 177 175 176 174 175 175 178 175 174 180 195 222 199 119 175 161 206 206 205 206 207 207 205 201 201
200 195 199 185 184 181 173 172 163 179 167 171 185 177 190 183 192 188 187 184 184 180 180 182 183 187 186 180 185 176 201 169 201 174 156 184 204 211 209 206 204 193 209
199 195 190 186 185 177 172 172 171 185 190 187 182 165 174 181 187 187 189 192 190 189 188 188 187 187 192 188 196 193 187 183 194 166 107 155 190 193 208 201 200 193 205